Horseshoe Bay, TX

9:32 PM MDT on September 21, 2017 (GMT -0600)
Horseshoe Bay

Weather History for KDZB - May, 2013

Change the Weather History Date:

Wednesday, May 29, 2013

  Actual Average (KBMQ) Record (KBMQ)
Temperature  
Mean Temperature 78 °F -  
Max Temperature 86 °F 86 °F 95 °F (2012)
Min Temperature 71 °F 65 °F 60 °F (2003)
Cooling Degree Days 14    
Growing Degree Days 28 (Base 50)    
Moisture  
Dew Point 66 °F    
Average Humidity 71    
Maximum Humidity 83    
Minimum Humidity 51    
Precipitation  
Precipitation 0.00 in - - ()
Sea Level Pressure  
Sea Level Pressure 29.76 in    
Wind  
Wind Speed 12 mph (SSE)    
Max Wind Speed 18 mph    
Max Gust Speed 30 mph    
Visibility 10 miles    
Events Rain    
Averages and records for this station are not official NWS values.
T = Trace of Precipitation, MM = Missing Value Source: NWS Daily Summary

Daily Weather History Graph

Daily Weather History Graph

Search for Another Location

Airport or City:

Trip Planner

Search our weather history database for the weather conditions in past years. The results will help you decide how hot, cold, wet, or windy it might be!

Date:

Astronomy

May. 29, 2013 Rise Set
Actual Time 5:32 AM MDT 7:29 PM MDT
Civil Twilight 5:05 AM MDT 7:56 PM MDT
Nautical Twilight 4:32 AM MDT 8:29 PM MDT
Astronomical Twilight 3:57 AM MDT 9:04 PM MDT
Moon 11:46 PM MDT (5/29) 10:22 AM MDT (5/29)
Length of Visible Light 14h 51m
Length of Day
13h 57m
Waning Gibbous, 72% of the Moon is Illuminated
May 29
Waning Gibbous
May 31
Last Quarter
Jun 8
New
Jun 16
First Quarter
Jun 23
Full

Hourly Weather History & Observations

Time (MDT) Temp. Heat Index Dew Point Humidity Pressure Visibility Wind Dir Wind Speed Gust Speed Precip Events Conditions
12:15 AM 73.4 °F - 66.2 °F 78% 29.85 in 10.0 mi SSE 11.5 mph 20.7 mph N/A   Overcast
12:35 AM 73.4 °F - 66.2 °F 78% 29.82 in 10.0 mi SE 16.1 mph 27.6 mph N/A   Scattered Clouds
12:55 AM 73.4 °F - 66.2 °F 78% 29.80 in 10.0 mi SSE 13.8 mph 28.8 mph N/A   Scattered Clouds
1:15 AM 73.4 °F - 66.2 °F 78% 29.81 in 10.0 mi SSE 16.1 mph 28.8 mph N/A   Scattered Clouds
1:35 AM 73.4 °F - 66.2 °F 78% 29.80 in 10.0 mi SSE 15.0 mph 25.3 mph N/A   Scattered Clouds
1:55 AM 73.4 °F - 66.2 °F 78% 29.80 in 10.0 mi SSE 11.5 mph 24.2 mph N/A   Mostly Cloudy
2:15 AM 73.4 °F - 66.2 °F 78% 29.78 in 10.0 mi SSE 15.0 mph 24.2 mph N/A   Overcast
2:35 AM 71.6 °F - 64.4 °F 78% 29.75 in 10.0 mi SSE 18.4 mph 26.5 mph N/A   Overcast
2:55 AM 71.6 °F - 64.4 °F 78% 29.73 in 10.0 mi SSE 16.1 mph 28.8 mph N/A   Overcast
3:15 AM 71.6 °F - 64.4 °F 78% 29.72 in 10.0 mi SSE 18.4 mph 28.8 mph N/A   Overcast
3:35 AM 73.4 °F - 64.4 °F 73% 29.71 in 10.0 mi SSE 18.4 mph 29.9 mph N/A   Overcast
3:55 AM 73.4 °F - 64.4 °F 73% 29.75 in 10.0 mi South 8.1 mph 19.6 mph N/A   Overcast
4:15 AM 73.4 °F - 64.4 °F 73% 29.76 in 10.0 mi SSE 10.4 mph 18.4 mph N/A   Overcast
4:35 AM 73.4 °F - 64.4 °F 73% 29.76 in 10.0 mi SE 9.2 mph 18.4 mph N/A   Overcast
4:55 AM 73.4 °F - 64.4 °F 73% 29.75 in 10.0 mi South 12.7 mph 25.3 mph N/A   Overcast
5:15 AM 73.4 °F - 64.4 °F 73% 29.75 in 10.0 mi SSE 11.5 mph 24.2 mph N/A   Overcast
5:35 AM 73.4 °F - 64.4 °F 73% 29.76 in 10.0 mi South 11.5 mph 26.5 mph N/A   Overcast
5:55 AM 73.4 °F - 64.4 °F 73% 29.75 in 10.0 mi SSE 13.8 mph 24.2 mph N/A   Overcast
6:15 AM 73.4 °F - 64.4 °F 73% 29.74 in 10.0 mi SSE 11.5 mph 26.5 mph N/A   Overcast
6:35 AM 73.4 °F - 64.4 °F 73% 29.73 in 10.0 mi SSE 17.3 mph 26.5 mph N/A   Overcast
6:55 AM 73.4 °F - 64.4 °F 73% 29.74 in 10.0 mi SSE 15.0 mph 23.0 mph N/A   Overcast
7:15 AM 73.4 °F - 66.2 °F 78% 29.76 in 10.0 mi South 8.1 mph 20.7 mph N/A   Overcast
7:35 AM 73.4 °F - 66.2 °F 78% 29.77 in 10.0 mi SSE 12.7 mph 18.4 mph N/A   Overcast
7:55 AM 75.2 °F - 66.2 °F 73% 29.80 in 10.0 mi SSW 5.8 mph - N/A   Overcast
8:15 AM 75.2 °F - 66.2 °F 73% 29.80 in 10.0 mi South 4.6 mph - N/A   Overcast
8:35 AM 75.2 °F - 66.2 °F 73% 29.80 in 10.0 mi South 8.1 mph - N/A   Light Drizzle
8:55 AM 75.2 °F - 64.4 °F 69% 29.80 in 10.0 mi South 11.5 mph 16.1 mph N/A   Overcast
9:15 AM 75.2 °F - 64.4 °F 69% 29.80 in 10.0 mi South 8.1 mph - N/A   Overcast
9:35 AM 77.0 °F - 66.2 °F 69% 29.79 in 10.0 mi South 5.8 mph - N/A   Overcast
9:55 AM 77.0 °F - 64.4 °F 65% 29.79 in 10.0 mi South 5.8 mph - N/A   Overcast
10:15 AM 77.0 °F - 66.2 °F 69% 29.79 in 10.0 mi South 9.2 mph - N/A   Overcast
10:35 AM 77.0 °F - 66.2 °F 69% 29.79 in 10.0 mi South 12.7 mph 17.3 mph N/A   Overcast
10:55 AM 75.2 °F - 66.2 °F 73% 29.79 in 10.0 mi SSE 6.9 mph 19.6 mph N/A   Drizzle
11:15 AM 77.0 °F - 68.0 °F 74% 29.79 in 10.0 mi South 9.2 mph - N/A Rain Rain
11:35 AM 73.4 °F - 68.0 °F 83% 29.80 in 7.0 mi SSE 6.9 mph - N/A Rain Light Rain
11:55 AM 75.2 °F - 68.0 °F 78% 29.79 in 7.0 mi SSE 6.9 mph - N/A   Overcast
12:15 PM 75.2 °F - 69.8 °F 83% 29.79 in 10.0 mi South 4.6 mph - N/A   Overcast
12:35 PM 77.0 °F - 68.0 °F 74% 29.79 in 10.0 mi SE 5.8 mph - N/A   Light Drizzle
12:55 PM 78.8 °F - 69.8 °F 74% 29.79 in 10.0 mi SSE 4.6 mph - N/A   Overcast
1:15 PM 78.8 °F - 68.0 °F 69% 29.78 in 10.0 mi SSE 5.8 mph - N/A   Overcast
1:35 PM 80.6 °F 83.2 °F 68.0 °F 65% 29.78 in 10.0 mi South 8.1 mph 17.3 mph N/A   Mostly Cloudy
1:55 PM 78.8 °F - 69.8 °F 74% 29.77 in 7.0 mi South 9.2 mph 21.9 mph N/A Rain Light Rain
2:15 PM 82.4 °F 85.4 °F 68.0 °F 62% 29.76 in 10.0 mi South 12.7 mph 21.9 mph N/A   Mostly Cloudy
2:35 PM 82.4 °F 85.4 °F 68.0 °F 62% 29.75 in 10.0 mi South 12.7 mph 20.7 mph N/A   Mostly Cloudy
2:55 PM 84.2 °F 87.3 °F 68.0 °F 58% 29.74 in 10.0 mi South 12.7 mph 19.6 mph N/A   Mostly Cloudy
3:15 PM 82.4 °F 85.4 °F 68.0 °F 62% 29.73 in 10.0 mi SSE 13.8 mph 23.0 mph N/A   Mostly Cloudy
3:35 PM 84.2 °F 87.3 °F 68.0 °F 58% 29.72 in 10.0 mi SSE 13.8 mph 23.0 mph N/A   Mostly Cloudy
3:55 PM 86.0 °F 88.2 °F 66.2 °F 51% 29.72 in 10.0 mi South 10.4 mph 26.5 mph N/A   Mostly Cloudy
4:15 PM 82.4 °F 85.4 °F 68.0 °F 62% 29.71 in 10.0 mi South 12.7 mph 21.9 mph N/A   Overcast
4:35 PM 84.2 °F 87.3 °F 68.0 °F 58% 29.71 in 10.0 mi South 6.9 mph 24.2 mph N/A   Mostly Cloudy
4:55 PM 82.4 °F 85.4 °F 68.0 °F 62% 29.71 in 10.0 mi SSE 11.5 mph 19.6 mph N/A   Mostly Cloudy
5:15 PM 82.4 °F 85.4 °F 68.0 °F 62% 29.71 in 10.0 mi South 13.8 mph 20.7 mph N/A   Mostly Cloudy
5:35 PM 80.6 °F 83.2 °F 68.0 °F 65% 29.71 in 10.0 mi South 13.8 mph 20.7 mph N/A   Overcast
5:55 PM 80.6 °F 82.7 °F 66.2 °F 61% 29.71 in 10.0 mi South 15.0 mph 24.2 mph N/A   Overcast
6:15 PM 80.6 °F 83.2 °F 68.0 °F 65% 29.70 in 10.0 mi SSE 16.1 mph 28.8 mph N/A   Mostly Cloudy
6:35 PM 80.6 °F 83.2 °F 68.0 °F 65% 29.71 in 10.0 mi SSE 18.4 mph 26.5 mph N/A   Scattered Clouds
6:55 PM 78.8 °F - 66.2 °F 65% 29.72 in 10.0 mi South 10.4 mph 28.8 mph N/A   Mostly Cloudy
7:15 PM 78.8 °F - 66.2 °F 65% 29.71 in 10.0 mi SSE 12.7 mph 23.0 mph N/A   Scattered Clouds
7:35 PM 78.8 °F - 68.0 °F 69% 29.71 in 10.0 mi SSE 10.4 mph 23.0 mph N/A   Scattered Clouds
7:55 PM 77.0 °F - 68.0 °F 74% 29.72 in 10.0 mi SSE 12.7 mph 26.5 mph N/A   Scattered Clouds
8:15 PM 77.0 °F - 66.2 °F 69% 29.71 in 10.0 mi SSE 12.7 mph 21.9 mph N/A   Scattered Clouds
8:35 PM 77.0 °F - 66.2 °F 69% 29.73 in 10.0 mi SSE 12.7 mph 24.2 mph N/A   Clear
8:55 PM 77.0 °F - 66.2 °F 69% 29.74 in 10.0 mi SSE 13.8 mph 23.0 mph N/A   Mostly Cloudy
9:15 PM 77.0 °F - 66.2 °F 69% 29.75 in 10.0 mi SSE 10.4 mph 18.4 mph N/A   Mostly Cloudy
9:35 PM 77.0 °F - 66.2 °F 69% 29.77 in 10.0 mi SSE 13.8 mph 21.9 mph N/A   Overcast
9:55 PM 77.0 °F - 66.2 °F 69% 29.77 in 10.0 mi SSE 10.4 mph 23.0 mph N/A   Overcast
10:15 PM 77.0 °F - 68.0 °F 74% 29.77 in 10.0 mi SSE 13.8 mph 23.0 mph N/A   Overcast
10:35 PM 77.0 °F - 66.2 °F 69% 29.77 in 10.0 mi SSE 11.5 mph 23.0 mph N/A   Overcast
10:55 PM 77.0 °F - 66.2 °F 69% 29.78 in 10.0 mi SSE 8.1 mph 21.9 mph N/A   Overcast
11:15 PM 77.0 °F - 66.2 °F 69% 29.78 in 10.0 mi SSE 9.2 mph 23.0 mph N/A   Overcast
11:35 PM 75.2 °F - 66.2 °F 73% 29.78 in 10.0 mi SSE 9.2 mph 19.6 mph N/A   Overcast
11:55 PM 75.2 °F - 66.2 °F 73% 29.78 in 10.0 mi SE 5.8 mph - N/A   Overcast